{"data":{"norad_id":69661,"epoch":"2026-09-20T01:39:55.430784Z","epoch_age_seconds":58880,"freshness":"FRESH","line1":"1 69661U 26143N   26263.06939156  .00014109  00000+0  43823-3 0  9999","line2":"2 69661  97.2833 306.2206 0001838 110.1630 249.9811 15.33466744 15073","mean_motion":15.33466744,"eccentricity":0.0001838,"inclination_deg":97.2833,"raan_deg":306.2206,"arg_perigee_deg":110.163,"mean_anomaly_deg":249.9811,"bstar":0.00043823,"rev_number":1507,"period_min":93.90487310105,"perigee_km":464.2206238715,"apogee_km":466.73633692209,"semimajor_km":6843.6154803968,"source":"CELESTRAK","updated_at":"2026-09-20T09:00:44.249271Z"}}